Location: Haute Rue
(49.4562°N, 1.8708°E)
Time: 22:11:06
(UTC+00:00)

Daily predictions for brighter satellites

Satellite Brightness Start Highest point End
(mag) Time Altitude Azimuth Time Altitude Azimuth Time Altitude Azimuth
Cosmos 1733 3.2 17:51:38 10° S 17:55:19 58° E 17:59:00 10° NNE
MINOTAUR 4 R/B 3.9 17:55:54 10° NNE 17:59:23 73° ESE 18:02:51 10° S
Cosmos 540 Rocket 4.3 17:55:54 10° NNW 18:00:55 56° WSW 18:05:54 10° S
Cosmos 1766 4.0 17:58:16 10° SSE 18:01:45 31° E 18:05:16 10° NNE
Cosmos 1674 Rocket 3.7 17:58:08 10° N 18:02:29 56° ENE 18:06:51 10° SSE
Meteor 2-10 4.3 17:57:46 10° S 18:03:14 57° E 18:08:34 10° NNE
ATLAS 2AS CENTAUR R/B 4.3 17:59:28 10° WNW 18:05:48 28° N 18:11:51 10° NE
YAOGAN 1 2.9 18:02:51 10° SE 18:06:58 45° ENE 18:11:06 10° N
Cosmos 968 Rocket 4.3 18:03:50 10° SSE 18:08:14 28° E 18:12:39 10° NE
Okean O Rocket 2.0 18:06:44 10° SE 18:10:50 41° ENE 18:14:59 10° N
Cosmos 2084 4.0 18:08:26 10° WSW 18:12:09 51° NW 18:15:55 10° NE
SAR-Lupe-3 4.5 18:09:16 10° SSE 18:12:50 85° ENE 18:16:26 10° NNW
Lacrosse 4 Rocket 3.2 18:11:14 10° SE 18:12:58 12° ESE 18:13:55 12° E
SKYMED 2 3.6 18:09:22 10° NNE 18:13:44 87° ESE 18:18:05 10° SSW
Meteor 2-5 Rocket 4.2 18:09:32 10° N 18:14:39 37° ENE 18:19:45 10° SE
Nadezhda 4 Rocket 4.2 18:09:40 10° SSE 18:15:42 50° E 18:21:45 10° NNE
USA-17 4.5 18:15:10 10° NW 18:18:22 90° SW 18:22:24 10° SE
Cosmos 2285 Rocket 4.0 18:14:44 10° NNW 18:21:05 69° ENE 18:27:28 10° SSE
PSLV R/B 3.9 18:19:26 10° S 18:23:06 72° WSW 18:26:46 10° NNW
Cosmos 1726 2.0 18:20:12 10° S 18:23:49 71° E 18:27:28 10° NNE
USA 186 3.4 18:22:42 15° E 18:23:57 19° ENE 18:26:23 10° NNE
Cosmos 2322 Rocket 3.2 18:19:33 10° SSE 18:24:03 25° ESE 18:28:35 10° NE
Cosmos 841 Rocket 4.4 18:22:41 10° NNW 18:27:42 52° WSW 18:32:40 10° S
Cosmos 1470 3.7 18:25:23 10° SSE 18:28:36 26° E 18:31:49 10° NNE
Cosmos 1378 Rocket 3.6 18:24:40 10° NNW 18:29:04 81° W 18:33:24 10° S
CZ-4B R/B 3.2 18:23:56 10° SSE 18:29:20 84° ENE 18:34:53 10° NNW
Cosmos 1980 Rocket 2.5 18:24:12 10° SW 18:29:49 71° WNW 18:35:27 10° NNE
Cosmos 1975 Rocket 4.0 18:26:17 10° N 18:30:08 28° ENE 18:33:08 14° SE
ARGOS Delta rocket 3.9 18:25:44 10° NNE 18:31:01 73° E 18:36:00 10° S
DMSP B5D2-2 4.4 18:26:29 10° N 18:31:46 71° WNW 18:36:59 10° SSW
Cosmos 2292 Rocket 3.8 18:33:53 10° SSE 18:38:41 45° E 18:42:25 10° NNE
Meteor 2-14 Rocket 4.4 18:34:29 10° S 18:40:34 89° W 18:46:40 10° N
Cosmos 1733 Rocket 4.2 18:38:34 10° SSW 18:42:52 48° WNW 18:47:13 10° N
USA 215 3.4 18:37:49 10° ENE 18:44:23 78° NNW 18:50:54 10° WSW
COBE Rocket 4.2 18:42:46 10° S 18:47:35 68° W 18:52:18 10° NNW
Cosmos 1844 Rocket 3.0 18:43:46 10° NNW 18:49:18 49° NE 18:52:59 21° ESE
Cosmos 2278 3.8 18:47:31 10° SSW 18:53:13 81° WNW 18:58:56 10° NNE
SL-16 R/B 2.3 18:48:32 10° S 18:54:01 55° ESE 18:59:34 10° NE
Cosmos 1570 Rocket 4.0 18:49:23 10° NNW 18:54:42 84° WSW 18:59:55 10° SSE
Landsat 5 4.2 18:51:21 10° NNE 18:55:30 35° E 18:59:35 10° SSE
Cosmos 1092 Rocket 4.0 18:51:02 10° S 18:57:10 58° E 19:03:17 10° NNE
DMSP B5D1-3 4.4 18:55:48 10° NNE 19:00:57 81° ESE 19:06:05 10° SSW
Resurs 01 Rocket 3.1 19:01:20 20° ENE 19:01:20 20° ENE 19:04:30 10° NNE
COSMO-SKYMED 1 4.4 18:57:43 10° N 19:01:38 33° WNW 19:05:32 10° SW
Meteor 2-21 Rocket 4.4 18:57:13 10° S 19:03:16 86° W 19:09:22 10° N
SJ-6B 2.9 19:02:07 34° ESE 19:03:21 49° ENE 19:07:02 10° N
Cosmos 2278 Rocket 4.0 19:00:26 10° N 19:03:52 16° NNE 19:05:41 14° NE
Cosmos 1437 Rocket 2.6 19:02:26 10° SSW 19:06:10 86° WNW 19:09:56 10° N
Gbstr 26 Del rocket 4.5 18:58:54 10° WSW 19:06:33 90° NNW 19:12:38 20° ENE
H-2A R/B 3.7 19:07:11 22° NE 19:07:11 22° NE 19:09:42 10° N
Cosmos 2263 Rocket 3.9 19:03:11 10° NW 19:08:14 33° WSW 19:13:14 10° SSW
Meteor 1-24 Rocket 3.5 19:04:48 10° N 19:10:09 85° ENE 19:15:33 10° SSE
Resurs 1-3 3.9 19:11:26 38° ESE 19:12:30 45° ENE 19:16:42 10° N
SL-4 R/B 3.6 19:11:18 10° W 19:15:19 33° SW 19:17:52 19° SSE
MetOp-A 4.4 19:17:19 29° NE 19:17:19 29° NE 19:20:16 10° N
Cosmos 2084 Rocket 3.4 19:14:45 10° NW 19:18:35 69° SW 19:19:51 40° SSE
USA 267 4.4 19:14:53 10° SSE 19:20:55 39° SW 19:26:59 10° WNW
Okean-O 2.5 19:20:29 37° SE 19:22:10 69° ENE 19:26:35 10° N
Cosmos 2208 Rocket 4.5 19:17:59 10° NNW 19:23:19 63° WSW 19:28:16 12° S
Cosmos 1486 Rocket 4.2 19:18:26 10° S 19:23:31 48° ESE 19:28:38 10° NNE
CZ-4 R/B 2.6 19:19:33 10° S 19:23:33 43° W 19:27:33 10° NNW
Cosmos 1844 3.6 19:18:19 10° NNW 19:23:54 72° ENE 19:26:12 36° SE
OBJECT-B 1.6 19:24:56 35° NW 19:24:56 35° NW 19:26:39 10° NNW
IGS 5A 3.3 19:24:38 40° SSE 19:26:03 82° ENE 19:30:12 10° NNW
DNEPR-1 R/B 3.9 19:22:54 10° SSW 19:27:30 56° ESE 19:30:36 25° NE
Meteor 1-22 Rocket 4.2 19:23:08 10° SSW 19:28:36 83° WNW 19:34:18 10° N
S3M 4.4 19:23:20 10° N 19:29:11 40° ENE 19:30:10 38° E
Cosmos 773 Rocket 4.4 19:25:18 10° NNW 19:30:22 43° ENE 19:31:00 41° ENE
Cosmos 1300 Rocket 3.4 19:30:15 53° SE 19:30:59 64° E 19:35:19 10° NNE
CSL-04 Debris 4.2 19:28:02 17° SSE 19:32:20 82° WSW 19:37:47 10° NNW
Cosmos 1627 Rocket 4.4 19:30:08 10° S 19:36:15 86° W 19:42:26 10° N
Cosmos 2360 Rocket 2.1 19:33:02 10° S 19:38:33 58° ESE 19:44:05 10° NE
USA 81 4.2 19:33:29 10° N 19:38:47 75° W 19:43:22 14° S
Cosmos 1782 Rocket 3.9 19:35:05 10° SSW 19:39:23 63° WNW 19:43:45 10° N
Cosmos 1025 Rocket 3.4 19:38:35 10° NNW 19:42:51 61° W 19:44:51 30° SSW
Okean O Rocket 3.8 19:43:47 10° SSW 19:47:20 24° W 19:50:55 10° NW
Cosmos 1417 Rocket 4.4 19:43:40 10° N 19:49:46 65° ENE 19:51:03 52° SE
Cosmos 968 Rocket 4.4 19:44:43 10° SW 19:49:47 48° WNW 19:54:52 10° NNE
Lacrosse 4 Rocket 1.6 19:46:48 10° SW 19:50:17 64° SW 19:50:17 64° SW
Cosmos 2026 Rocket 4.2 19:46:50 10° SSW 19:52:51 67° WNW 19:58:56 10° N
USA 186 3.4 19:55:51 33° WSW 19:56:02 33° W 19:59:08 10° NNW
CSL-04 Rocket 4.2 19:55:05 23° S 19:58:20 57° WSW 20:03:42 10° NNW
ATLAS 2AS CENTAUR R/B 4.0 19:52:39 10° NW 19:59:00 30° NNE 20:01:35 24° NE
MOS 1 4.1 20:01:33 68° E 20:01:56 70° ENE 20:07:35 10° NNW
Cosmos 1553 Rocket 4.1 19:57:12 10° NNW 20:03:34 79° W 20:06:33 34° S
Landsat 7 4.1 20:04:06 56° SW 20:04:48 64° WSW 20:09:31 10° NNW
deb Chang Zheng 4 4.0 20:05:56 53° NNW 20:05:56 53° NNW 20:09:12 10° NNW
Cosmos 1536 Rocket 4.5 20:01:50 10° N 20:04:42 40° N 20:04:42 40° N
SPOT 1/Viking Rocket 3.5 20:07:54 72° NNE 20:07:54 72° NNE 20:12:40 10° NNW
Cosmos 2322 Rocket 2.6 20:01:59 10° SW 20:07:39 64° WNW 20:13:21 10° NNE
NOSS 3-4 (A) 3.9 20:04:09 10° NW 20:10:52 63° NE 20:12:04 56° E
NOSS 3-4 (C) 3.9 20:04:15 10° NW 20:10:59 63° NE 20:12:10 56° E
Ariane Rocket 3.7 20:16:26 44° NNE 20:16:26 44° NNE 20:20:08 10° N
NOSS 3-3 (A) 4.0 20:15:41 10° SW 20:30:26 - NE 20:20:03 57° SSW
NOSS 3-3 (C) 4.1 20:15:47 10° SW 20:30:32 - NE 20:19:58 53° SSW
Aureole 1 Rocket 3.9 20:18:18 10° SSW 20:25:41 89° ESE 20:31:27 10° NNE
USA 215 3.9 20:24:15 31° NE 20:27:01 48° N 20:33:14 10° W
USA 281 3.8 20:27:40 40° NE 20:27:40 40° NE 20:33:27 10° NNW
Meteor 1-16 Rocket 4.4 20:30:33 66° N 20:30:33 66° N 20:35:36 10° NNE
Cosmos 1844 Rocket 4.1 20:28:00 10° NW 20:33:00 33° WSW 20:34:40 27° SW
Resurs 01 Rocket 3.0 20:38:52 36° NW 20:38:52 36° NW 20:41:44 10° NNW
SL-16 R/B 3.8 20:33:22 10° WSW 20:38:26 32° NW 20:43:31 10° NNE
Cosmos 2315 Rocket 4.2 20:32:29 10° N 20:37:55 64° NNE 20:37:55 64° NNE
Terra 4.0 20:42:42 18° NNE 20:42:42 18° NNE 20:44:07 10° N
Cosmos 1943 Rocket 4.0 20:35:58 10° N 20:38:59 21° NNE 20:38:59 21° NNE
Cosmos 2278 Rocket 3.1 20:43:39 10° NNW 20:47:32 41° N 20:47:32 41° N
Gbstr 26 Del rocket 4.5 20:46:29 10° W 20:54:30 76° N 20:55:06 72° NE
Cosmos 2369 Rocket 4.4 20:56:05 10° N 20:58:48 15° NNE 20:58:48 15° NNE
Cosmos 2333 Rocket 4.3 21:18:31 19° NNE 21:18:31 19° NNE 21:20:09 10° NNE
Cosmos 2360 Rocket 3.8 21:17:56 10° WSW 21:22:54 31° NW 21:27:53 10° NNE
ATLAS 2AS CENTAUR R/B 3.6 21:44:07 10° NW 21:49:00 44° NNW 21:49:00 44° NNW
USA 215 4.4 22:11:37 37° NW 22:11:37 37° NW 22:15:43 10° WNW
